Content
SEND FEEDBACK

Daily
Averages
Monthly
Summary
United States of America

ORCUTT, CALIFORNIA


Home > North America > United States > California
Elevation: 73 meters     Latitude: 34 54N     Longitude: 120 27W

WEATHER
 
SELECT A DAY
Number of Records: 217,788;   Date Range: 1/1/95 - 7/26/14
 
SHARE

PRINT THIS DATA

[ ← Previous Day ]
WEATHER ALMANAC - 13 FEBRUARY, 2013
[ Next Day → ]
[ °F ]   °C
Weather ElementAverageHighLow
Temperature6.2 °C17.8 °C (12:51 pm)2 °C (4:59 am)
Dewpoint4.1 °C8.9 °C (3:51 pm)1.7 °C (6:51 am)
Humidity89.1 %100 % (12:58 am)40 % (1:51 pm)
Barometer1025.1 hPa1026.4 hPa (12:50 am)1022.7 hPa (2:51 pm)
Wind Speed3.5 km/h22.2 km/h (2:51 pm)
Weather ElementAverage
Visibility7.1 km
Wind DirectionENE (67.6 °)

Weather ElementTotal
Precipitation---
Heating Degree Days8.4 (Base 18.3)
Averaged from 45 records on 13 February, 2013
WEATHER CONDITIONS BREAKOUT
WIND DIRECTION BREAKOUT
WEATHER BY HOUR - 13 FEBRUARY, 2013
[ °F ]   °C
Local TimeTemperatureDewpointHumidityBarometerVisibilityWind DirectionWind SpeedGust SpeedPrecipitationEventsConditions
12:38 AM5 °C4 °C93 %1026.1 hPa0.3 kmCalmFogFog
12:50 AM5 °C4.4 °C96 %1026.4 hPa1.9 kmCalmOvercast
12:52 AM5 °C4 °C93 %1026.1 hPa4 kmCalmOvercast
12:58 AM4 °C4 °C100 %1026.1 hPa1.6 kmCalmMist
1:05 AM6 °C6 °C100 %1026.1 hPa0.3 kmCalmFogFog
1:32 AM5 °C5 °C100 %1026.1 hPa0.3 kmCalmFogFog
1:51 AM4.4 °C4.4 °C100 %1026.4 hPa0.3 kmCalmFogFog
2:40 AM3 °C3 °C100 %1025.7 hPa0.3 kmCalmFogFog
2:51 AM3.3 °C3.3 °C100 %1026.1 hPa0.3 kmCalmFogFog
3:03 AM3 °C3 °C100 %1025.7 hPa0.8 kmCalmFogFog
3:15 AM4 °C4 °C100 %1025.7 hPa0.3 kmCalmFogFog
3:24 AM3 °C3 °C100 %1025.4 hPa0.8 kmCalmFogFog
3:28 AM3 °C3 °C100 %1025.4 hPa2.4 kmCalmOvercast
3:30 AM3 °C3 °C100 %1025.4 hPa4.8 kmCalmOvercast
3:51 AM2.8 °C2.2 °C96 %1026.1 hPa9.7 kmCalmMostly Cloudy
4:51 AM2.8 °C2.2 °C96 %1025.7 hPa9.7 kmCalmScattered Clouds
4:59 AM2 °C2 °C100 %1025.4 hPa9.7 kmCalmMostly Cloudy
5:20 AM2 °C2 °C100 %1025.4 hPa11.3 kmCalmScattered Clouds
5:27 AM3 °C2 °C93 %1025.4 hPa4 kmCalmMostly Cloudy
5:29 AM3 °C2 °C93 %1025.4 hPa1.3 kmCalmMist
5:41 AM2 °C2 °C100 %1025.4 hPa2.4 kmSSE (150°)5.6 km/hMostly Cloudy
5:44 AM2 °C2 °C100 %1025.4 hPa4.8 kmCalmOvercast
5:46 AM2 °C2 °C100 %1025.4 hPa1.9 kmCalmOvercast
5:51 AM2.2 °C2.2 °C100 %1026.1 hPa0.8 kmSSE (160°)5.6 km/hFogFog
5:58 AM2 °C2 °C100 %1025.4 hPa3.2 kmCalmOvercast
6:05 AM2 °C2 °C100 %1025.4 hPa0.8 kmSE (140°)5.6 km/hFogFog
6:25 AM2 °C2 °C100 %1025.1 hPa8 kmESE (120°)7.4 km/hScattered Clouds
6:51 AM2.2 °C1.7 °C97 %1026.1 hPa8 kmSE (130°)5.6 km/hScattered Clouds
7:51 AM3.9 °C3.3 °C96 %1026.1 hPa9.7 kmCalmClear
8:51 AM8.9 °C5.6 °C80 %1026.1 hPa14.5 kmCalmClear
9:51 AM11.1 °C5.6 °C69 %1026.1 hPa16.1 kmCalmClear
10:51 AM13.9 °C3.3 °C49 %1025.7 hPa16.1 kmCalmClear
11:51 AM16.1 °C5 °C48 %1024.7 hPa16.1 kmVariable5.6 km/hClear
12:51 PM17.8 °C6.1 °C46 %1023.7 hPa14.5 kmVariable9.3 km/hClear
1:51 PM17.8 °C3.9 °C40 %1023 hPa16.1 kmWNW (300°)14.8 km/hClear
2:51 PM16.1 °C8.3 °C60 %1022.7 hPa14.5 kmNW (310°)22.2 km/hClear
3:51 PM14.4 °C8.9 °C70 %1022.7 hPa12.9 kmNW (320°)22.2 km/hClear
4:51 PM12.8 °C8.3 °C74 %1022.7 hPa12.9 kmNW (310°)20.4 km/hClear
5:51 PM10.6 °C7.8 °C83 %1022.7 hPa12.9 kmNW (310°)9.3 km/hClear
6:51 PM10.6 °C7.8 °C83 %1022.7 hPa12.9 kmNNW (330°)5.6 km/hClear
7:51 PM9.4 °C7.8 °C90 %1022.7 hPa11.3 kmCalmClear
8:51 PM7.8 °C6.1 °C89 %1023 hPa11.3 kmCalmClear
9:51 PM6.7 °C5 °C89 %1023 hPa11.3 kmSSE (160°)7.4 km/hClear
10:51 PM6.1 °C5 °C93 %1023 hPa11.3 kmSE (140°)5.6 km/hClear
11:51 PM5.6 °C4.4 °C92 %1022.7 hPa9.7 kmSSE (160°)5.6 km/hClear
Hourly data recorded from KSMX, located 0 kilometers away from Orcutt, California







STORIES FROM OUR PARTNERS